GW2778 Weather Reports


Display with metric or nautical units.
time (UTC)temp
F
wind
direction
speed
MPH
gust
MPH
rain 1hr
in
rain 24hr
in
rain mn
in
humidity
%
barometer
mb
20260504070217 34 356 0.0 0.0 0.00 0.00 0.00 89 1009.3
20260504060138 35 332 0.0 0.0 0.00 0.00 0.00 89 1009.4
20260504050606 36 330 0.0 0.0 0.00 0.00 0.00 87 1009.2
20260504050103 36 335 0.0 0.0 0.00 0.00 0.00 87 1009.3
20260504045600 36 337 0.0 0.0 0.00 0.00 0.00 87 1009.5
20260504045055 36 337 0.0 0.0 0.00 0.00 0.00 87 1009.3
20260504044553 36 328 0.0 0.0 0.00 0.00 0.00 86 1009.4
20260504044049 36 328 0.0 0.0 0.00 0.00 0.00 86 1009.3
20260504043547 35 335 0.0 0.0 0.00 0.00 0.00 87 1009.4
20260504043044 35 334 0.0 0.0 0.00 0.00 0.00 87 1009.3
20260504042541 36 339 0.0 0.0 0.00 0.00 0.00 87 1009.6
20260504042038 36 339 0.0 0.0 0.00 0.00 0.00 86 1009.5
20260504041533 36 343 0.0 0.0 0.00 0.00 0.00 86 1009.5
20260504041030 36 325 0.0 0.0 0.00 0.00 0.00 85 1009.2
20260504040527 36 325 0.0 0.0 0.00 0.00 0.00 85 1009.3
20260504040024 37 325 0.0 0.0 0.00 0.00 0.00 85 1009.2
20260504035521 37 325 0.0 0.0 0.00 0.00 0.00 84 1009.3
20260504035017 37 325 0.0 0.0 0.00 0.00 0.00 83 1009.1
20260504034515 37 325 0.0 0.0 0.00 0.00 0.00 83 1009.0
20260504034012 37 325 0.0 0.0 0.00 0.00 0.00 84 1009.0
20260504033510 37 325 0.0 0.0 0.00 0.00 0.00 84 1008.8
20260504033007 38 325 0.0 0.0 0.00 0.00 0.00 83 1008.9
20260504032503 38 325 0.0 0.0 0.00 0.00 0.00 83 1009.0
20260504032000 38 325 0.0 0.0 0.00 0.00 0.00 82 1009.0
20260504031456 38 325 0.0 0.0 0.00 0.00 0.00 82 1008.7
20260504030954 39 325 0.0 0.0 0.00 0.00 0.00 80 1009.0
20260504030451 38 325 0.0 0.0 0.00 0.00 0.00 80 1008.7
20260504025946 38 325 0.0 0.0 0.00 0.00 0.00 81 1008.7
20260504025444 39 325 0.0 0.0 0.00 0.00 0.00 80 1008.9
20260504024941 39 325 0.0 0.0 0.00 0.00 0.00 79 1008.9
20260504024438 39 325 0.0 0.0 0.00 0.00 0.00 78 1008.9
20260504023935 40 325 0.0 0.0 0.00 0.00 0.00 77 1009.0
20260504023431 40 325 0.0 0.0 0.00 0.00 0.00 76 1008.9
20260504022927 40 325 0.0 0.0 0.00 0.00 0.00 77 1008.8
20260504022423 41 325 0.0 0.0 0.00 0.00 0.00 76 1008.9
20260504021920 41 327 0.0 0.0 0.00 0.00 0.00 75 1008.7
20260504021417 41 321 0.0 0.0 0.00 0.00 0.00 75 1008.8
20260504020915 41 315 0.0 0.0 0.00 0.00 0.00 75 1009.0
20260504020411 41 335 0.0 0.0 0.00 0.00 0.00 74 1008.9
20260504015908 41 337 0.0 0.0 0.00 0.00 0.00 73 1009.0
20260504015404 41 334 0.0 0.0 0.00 0.00 0.00 74 1008.6
20260504014900 42 328 0.0 0.0 0.00 0.00 0.00 72 1009.0
20260504014356 42 324 0.0 0.0 0.00 0.00 0.00 72 1008.9
20260504013853 42 286 0.0 0.0 0.00 0.00 0.00 70 1008.9
20260504013351 43 322 0.0 0.0 0.00 0.00 0.00 69 1008.8
20260504012847 43 323 0.0 0.0 0.00 0.00 0.00 68 1008.7
20260504012345 43 322 0.0 0.0 0.00 0.00 0.00 67 1008.9
20260504011843 44 324 0.0 0.0 0.00 0.00 0.00 66 1008.8
20260504011339 44 322 0.0 0.0 0.00 0.00 0.00 64 1008.9
20260504010835 45 324 0.0 0.0 0.00 0.00 0.00 64 1008.7
20260504010331 45 312 0.0 0.0 0.00 0.00 0.00 62 1008.6
20260504005828 46 338 0.0 0.0 0.00 0.00 0.00 61 1008.4
20260504005324 47 317 0.0 0.0 0.00 0.00 0.00 59 1008.8
20260504004822 48 317 0.0 0.0 0.00 0.00 0.00 55 1008.4
20260504004320 49 303 0.0 0.0 0.00 0.00 0.00 53 1008.3
20260504003816 50 303 0.0 0.0 0.00 0.00 0.00 50 1008.4
20260504003313 51 291 1.0 1.0 0.00 0.00 0.00 48 1008.3
20260504002809 51 271 2.0 3.0 0.00 0.00 0.00 47 1008.2
20260504002306 51 320 0.0 0.0 0.00 0.00 0.00 48 1008.3
20260504001804 52 291 1.0 2.0 0.00 0.00 0.00 46 1008.3
20260504001301 52 275 2.0 2.0 0.00 0.00 0.00 45 1007.9
20260504000758 53 296 4.0 6.0 0.00 0.00 0.00 45 1007.7
20260504000254 53 210 6.0 9.0 0.00 0.00 0.00 44 1008.0
20260503235753 53 306 1.0 1.0 0.00 0.00 0.00 44 1008.0
20260503235250 53 218 3.0 4.0 0.00 0.00 0.00 43 1008.1
20260503234747 53 345 2.0 4.0 0.00 0.00 0.00 43 1007.9
20260503234245 54 295 2.0 3.0 0.00 0.00 0.00 43 1007.8
20260503233742 54 274 2.0 2.0 0.00 0.00 0.00 43 1007.8
20260503233237 54 325 5.0 7.0 0.00 0.00 0.00 42 1007.8
20260503232729 55 228 3.0 4.0 0.00 0.00 0.00 42 1007.8
20260503232226 55 259 3.0 3.0 0.00 0.00 0.00 42 1007.8
20260503231725 55 229 5.0 7.0 0.00 0.00 0.00 40 1007.5
20260503231221 55 271 6.0 8.0 0.00 0.00 0.00 41 1007.8
20260503230717 55 297 3.0 4.0 0.00 0.00 0.00 41 1007.8
20260503230214 55 264 9.0 10.0 0.00 0.00 0.00 40 1007.5
20260503225712 55 279 5.0 7.0 0.00 0.00 0.00 40 1007.7
20260503225211 55 315 3.0 4.0 0.00 0.00 0.00 40 1007.6
20260503224709 55 270 3.0 3.0 0.00 0.00 0.00 41 1007.6
20260503224207 56 300 10.0 15.0 0.00 0.00 0.00 39 1007.4
20260503223704 56 217 3.0 4.0 0.00 0.00 0.00 39 1007.5
20260503223201 56 241 7.0 8.0 0.00 0.00 0.00 40 1007.4
20260503222658 57 219 11.0 16.0 0.00 0.00 0.00 38 1007.3
20260503222155 57 277 7.0 13.0 0.00 0.00 0.00 40 1007.6
20260503221654 56 271 4.0 4.0 0.00 0.00 0.00 39 1007.3
20260503221151 56 277 2.0 3.0 0.00 0.00 0.00 40 1007.5
20260503220647 55 253 5.0 8.0 0.00 0.00 0.00 40 1007.5
20260503220144 56 270 8.0 9.0 0.00 0.00 0.00 40 1007.5
20260503215642 56 276 4.0 4.0 0.00 0.00 0.00 40 1007.3
20260503215138 57 261 4.0 6.0 0.00 0.00 0.00 39 1007.5
20260503214637 56 290 5.0 7.0 0.00 0.00 0.00 40 1007.5
20260503214132 55 306 4.0 6.0 0.00 0.00 0.00 40 1007.7
20260503213626 56 272 2.0 2.0 0.00 0.00 0.00 40 1007.6
20260503213122 55 279 5.0 7.0 0.00 0.00 0.00 41 1007.3
20260503212619 55 274 4.0 4.0 0.00 0.00 0.00 40 1007.5
20260503212116 55 287 2.0 4.0 0.00 0.00 0.00 41 1007.4
20260503211609 55 308 7.0 11.0 0.00 0.00 0.00 40 1007.5
20260503211104 55 177 4.0 6.0 0.00 0.00 0.00 40 1007.3
20260503210601 55 298 5.0 7.0 0.00 0.00 0.00 39 1007.2
20260503210056 55 216 7.0 9.0 0.00 0.00 0.00 38 1007.2
20260503205553 55 341 9.0 13.0 0.00 0.00 0.00 39 1007.2
20260503205049 55 326 4.0 6.0 0.00 0.00 0.00 40 1007.2
20260503204547 54 301 5.0 7.0 0.00 0.00 0.00 40 1007.2
20260503204044 55 272 5.0 8.0 0.00 0.00 0.00 40 1007.1
20260503203541 56 294 5.0 7.0 0.00 0.00 0.00 39 1007.2
20260503203038 55 324 6.0 7.0 0.00 0.00 0.00 40 1007.3
20260503202536 55 292 2.0 2.0 0.00 0.00 0.00 39 1007.6
20260503202034 56 325 2.0 2.0 0.00 0.00 0.00 41 1007.4
20260503201532 55 279 1.0 2.0 0.00 0.00 0.00 41 1007.5
20260503201028 56 286 2.0 3.0 0.00 0.00 0.00 39 1007.1
20260503200524 55 296 2.0 3.0 0.00 0.00 0.00 40 1007.6
20260503200021 55 292 7.0 8.0 0.00 0.00 0.00 38 1007.6
20260503195519 54 174 6.0 8.0 0.00 0.00 0.00 39 1007.6
20260503195015 54 295 8.0 10.0 0.00 0.00 0.00 40 1007.7
20260503194513 54 310 4.0 6.0 0.00 0.00 0.00 39 1007.8
20260503194012 54 286 5.0 7.0 0.00 0.00 0.00 40 1007.7
20260503193509 54 299 5.0 7.0 0.00 0.00 0.00 40 1008.0
20260503193004 54 274 5.0 7.0 0.00 0.00 0.00 40 1007.8
20260503192501 54 224 7.0 11.0 0.00 0.00 0.00 38 1008.0
20260503191956 55 32 9.0 13.0 0.00 0.00 0.00 37 1008.3
20260503191454 55 293 6.0 8.0 0.00 0.00 0.00 38 1007.9
20260503190950 54 288 2.0 3.0 0.00 0.00 0.00 41 1008.2
20260503190447 54 328 9.0 13.0 0.00 0.00 0.00 39 1008.1
20260503185944 54 199 7.0 9.0 0.00 0.00 0.00 40 1008.1
20260503185441 52 262 4.0 6.0 0.00 0.00 0.00 40 1008.2
20260503184940 52 334 9.0 11.0 0.00 0.00 0.00 40 1008.4
20260503184437 52 290 7.0 10.0 0.00 0.00 0.00 40 1008.3
20260503183933 53 274 4.0 6.0 0.00 0.00 0.00 40 1008.6
20260503183430 53 288 4.0 6.0 0.00 0.00 0.00 42 1008.8
20260503182927 51 338 6.0 11.0 0.00 0.00 0.00 42 1008.6
20260503182426 51 323 10.0 13.0 0.00 0.00 0.00 41 1008.8
20260503181923 52 294 4.0 4.0 0.00 0.00 0.00 44 1008.7
20260503181420 51 312 7.0 9.0 0.00 0.00 0.00 43 1008.7
20260503180916 50 271 6.0 7.0 0.00 0.00 0.00 44 1008.7
20260503180414 50 249 4.0 7.0 0.00 0.00 0.00 44 1008.8
20260503175910 51 318 10.0 13.0 0.00 0.00 0.00 43 1008.9
20260503175409 50 283 2.0 4.0 0.00 0.00 0.00 45 1008.7
20260503174904 50 286 5.0 8.0 0.00 0.00 0.00 44 1008.9
20260503174402 49 292 4.0 6.0 0.00 0.00 0.00 42 1008.8
20260503173857 51 268 6.0 8.0 0.00 0.00 0.00 43 1009.0
20260503173354 51 196 8.0 9.0 0.00 0.00 0.00 44 1008.9
20260503172850 51 272 3.0 9.0 0.00 0.00 0.00 44 1009.0
20260503172348 50 334 4.0 4.0 0.00 0.00 0.00 47 1009.1
20260503171844 50 352 15.0 18.0 0.00 0.00 0.00 44 1008.7
20260503171341 49 303 3.0 3.0 0.00 0.00 0.00 47 1009.2
20260503170838 49 286 7.0 9.0 0.00 0.00 0.00 46 1009.1
20260503170335 48 294 5.0 9.0 0.00 0.00 0.00 47 1009.2
20260503150727 45 281 5.0 8.0 0.00 0.00 0.00 51 1009.7
20260503150223 45 314 8.0 13.0 0.00 0.00 0.00 50 1009.9
20260503140147 42 281 2.0 3.0 0.00 0.00 0.00 60 1009.8
20260503131117 40 286 6.0 13.0 0.00 0.00 0.00 68 1010.0
20260503130615 41 273 4.0 6.0 0.00 0.00 0.00 69 1010.0
20260503130112 40 246 9.0 11.0 0.00 0.00 0.00 70 1009.9
20260503110505 37 282 2.0 2.0 0.00 0.00 0.00 78 1009.3
20260503090349 37 284 2.0 2.0 0.00 0.00 0.00 74 1008.0
20260503081312 39 273 2.0 2.0 0.00 0.00 0.00 75 1007.9
20260503080808 39 283 4.0 4.0 0.00 0.00 0.00 75 1007.8
20260503080306 39 335 3.0 3.0 0.00 0.00 0.00 74 1007.8